K8VGL Weather Reports


Display with metric or nautical units.
time (UTC)temp
F
wind
direction
speed
MPH
gust
MPH
rain 1hr
in
rain 24hr
in
rain mn
in
humidity
%
barometer
mb
20260905181535 89 38 0.0 4.0 0.00 0.00 0.00 66 1012.4
20260905180040 88 129 1.0 4.0 0.00 0.00 0.00 64 1012.6
20260905174530 88 132 1.0 6.0 0.00 0.00 0.00 68 1012.6
20260905173030 87 248 0.0 5.0 0.00 0.00 0.00 65 1012.7
20260905171529 87 280 1.0 3.0 0.00 0.00 0.00 66 1012.9
20260905170025 86 283 1.0 4.0 0.00 0.00 0.00 63 1013.1
20260905164526 86 140 2.0 4.0 0.00 0.00 0.00 65 1013.4
20260905163021 84 350 1.0 6.0 0.00 0.00 0.00 65 1013.5
20260905161516 84 179 1.0 7.0 0.00 0.00 0.00 67 1013.5
20260905160015 83 264 2.0 7.0 0.00 0.00 0.00 67 1013.5
20260905154511 82 2 2.0 8.0 0.00 0.00 0.00 69 1013.5
20260905153014 80 185 2.0 7.0 0.00 0.00 0.00 70 1013.5
20260905151511 79 259 1.0 6.0 0.00 0.00 0.00 73 1013.8
20260905150108 78 65 2.0 8.0 0.00 0.00 0.00 73 1013.8
20260905144558 78 254 1.0 8.0 0.00 0.00 0.00 75 1013.7
20260905143058 77 277 2.0 7.0 0.00 0.00 0.00 75 1014.0
20260905141555 76 70 1.0 5.0 0.00 0.00 0.00 76 1014.0
20260905140055 75 42 3.0 7.0 0.00 0.00 0.00 77 1014.1
20260905134556 74 137 2.0 7.0 0.00 0.00 0.00 79 1014.0
20260905133053 74 133 3.0 7.0 0.00 0.00 0.00 79 1014.1
20260905131553 73 135 2.0 8.0 0.00 0.00 0.00 80 1014.1
20260905130050 73 145 1.0 8.0 0.00 0.00 0.00 82 1014.2
20260905124549 72 165 3.0 7.0 0.00 0.00 0.00 82 1014.2
20260905123102 72 123 2.0 10.0 0.00 0.00 0.00 83 1014.2
20260905121553 72 96 1.0 4.0 0.00 0.00 0.00 83 1014.3
20260905120044 73 147 1.0 4.0 0.00 0.00 0.00 84 1014.0
20260905114542 73 140 2.0 8.0 0.00 0.00 0.00 84 1013.8
20260905113039 74 91 3.0 9.0 0.00 0.00 0.00 88 1013.4
20260905111536 73 80 2.0 7.0 0.00 0.00 0.00 97 1013.2
20260905110034 73 225 0.0 1.0 0.00 0.00 0.00 97 1012.5
20260905104533 73 225 0.0 0.0 0.00 0.00 0.00 97 1012.3
20260905103032 73 225 0.0 0.0 0.00 0.00 0.00 97 1012.4
20260905101534 73 225 0.0 0.0 0.00 0.00 0.00 97 1012.2
20260905100106 73 225 0.0 0.0 0.00 0.00 0.00 96 1012.1
20260905094541 74 225 0.0 0.0 0.00 0.00 0.00 96 1012.1
20260905093029 74 225 0.0 0.0 0.00 0.00 0.00 96 1012.2
20260905091528 74 225 0.0 0.0 0.00 0.00 0.00 96 1012.1
20260905090027 74 225 0.0 0.0 0.00 0.00 0.00 96 1012.2
20260905084526 74 225 0.0 0.0 0.00 0.00 0.00 96 1012.1
20260905083028 74 225 0.0 0.0 0.00 0.00 0.00 96 1012.1
20260905081526 74 225 0.0 0.0 0.00 0.00 0.00 97 1011.8
20260905080024 74 225 0.0 0.0 0.00 0.00 0.00 97 1011.5
20260905074528 74 225 0.0 0.0 0.00 0.00 0.00 97 1011.5
20260905073023 74 225 0.0 0.0 0.00 0.00 0.00 97 1011.4
20260905071522 74 225 0.0 0.0 0.00 0.00 0.00 97 1011.5
20260905070020 74 225 0.0 0.0 0.00 0.00 0.00 97 1011.6
20260905064518 75 225 0.0 0.0 0.00 0.00 0.00 97 1011.8
20260905063016 75 225 0.0 0.0 0.00 0.00 0.00 96 1012.2
20260905061514 75 225 0.0 0.0 0.00 0.00 0.00 96 1012.4
20260905060014 75 225 0.0 1.0 0.00 0.00 0.00 96 1012.4
20260905054523 75 225 0.0 0.0 0.00 0.00 0.00 96 1012.6
20260905053008 76 225 0.0 0.0 0.00 0.00 0.00 96 1012.7
20260905051509 76 225 0.0 0.0 0.00 0.00 0.00 96 1012.7
20260905050006 76 225 0.0 1.0 0.00 0.00 0.00 95 1012.7
20260905044505 76 225 0.0 0.0 0.00 0.00 0.00 95 1012.8
20260905043004 76 225 0.0 0.0 0.00 0.00 0.00 94 1012.7
20260905041503 77 225 0.0 0.0 0.00 0.00 0.00 94 1012.9
20260905040108 77 225 0.0 0.0 0.00 0.00 0.00 93 1013.0
20260905034606 77 225 0.0 0.0 0.00 0.00 0.00 93 1012.9
20260905033058 78 225 0.0 0.0 0.00 0.00 0.00 92 1013.0
20260905031558 78 225 0.0 0.0 0.00 0.00 0.00 91 1013.0
20260905030057 78 225 0.0 0.0 0.00 0.00 0.00 91 1013.0
20260905024602 78 224 0.0 0.0 0.00 0.00 0.00 90 1012.9
20260905023057 79 224 0.0 0.0 0.00 0.00 0.00 89 1012.7
20260905021556 79 224 0.0 0.0 0.00 0.00 0.00 89 1012.8
20260905020058 80 225 0.0 0.0 0.00 0.00 0.00 89 1012.7
20260905014555 80 224 0.0 0.0 0.00 0.00 0.00 86 1012.5
20260905013101 81 224 0.0 0.0 0.00 0.00 0.00 84 1012.6
20260905011554 81 224 0.0 0.0 0.00 0.00 0.00 83 1012.3
20260905004554 83 224 0.0 0.0 0.00 0.00 0.00 80 1012.3
20260905003053 84 224 0.0 0.0 0.00 0.00 0.00 77 1012.3
20260905001553 86 224 0.0 0.0 0.00 0.00 0.00 75 1012.4
20260905000052 87 224 0.0 0.0 0.00 0.00 0.00 72 1012.3
20260904234551 88 224 0.0 0.0 0.00 0.00 0.00 69 1012.3
20260904233051 89 224 0.0 2.0 0.00 0.00 0.00 68 1012.3
20260904231602 90 133 0.0 2.0 0.00 0.00 0.00 65 1012.3
20260904230050 90 286 0.0 3.0 0.00 0.00 0.00 64 1012.1
20260904224549 91 204 0.0 2.0 0.00 0.00 0.00 65 1012.1
20260904223049 92 104 0.0 4.0 0.00 0.00 0.00 63 1012.1
20260904221555 92 64 0.0 5.0 0.00 0.00 0.00 61 1011.9
20260904220057 93 257 0.0 3.0 0.00 0.00 0.00 61 1011.9
20260904214548 94 190 0.0 3.0 0.00 0.00 0.00 59 1011.9
20260904213047 94 158 1.0 5.0 0.00 0.00 0.00 58 1011.9
20260904211546 94 283 1.0 5.0 0.00 0.00 0.00 58 1012.2
20260904210045 94 252 1.0 5.0 0.00 0.00 0.00 58 1012.4
20260904204543 94 269 1.0 4.0 0.00 0.00 0.00 58 1012.4
20260904203051 94 123 0.0 3.0 0.00 0.00 0.00 60 1012.5
20260904201542 94 165 0.0 4.0 0.00 0.00 0.00 58 1012.8
20260904200053 94 296 1.0 5.0 0.00 0.00 0.00 57 1013.0
20260904194537 94 264 1.0 6.0 0.00 0.00 0.00 58 1013.2
20260904193031 93 297 1.0 5.0 0.00 0.00 0.00 60 1013.4
20260904191534 94 291 1.0 4.0 0.00 0.00 0.00 60 1013.7
20260904190030 93 287 1.0 5.0 0.00 0.00 0.00 59 1013.9
20260904184536 93 22 1.0 3.0 0.00 0.00 0.00 59 1014.1
20260904183028 93 354 1.0 5.0 0.00 0.00 0.00 60 1014.2